Погода Имени Попова

Погода Имени Попова : погода сейчас, прогноз погоды и архив. Всё, что Вы хотите узнать о погоде Имени Попова!

Поиск расширенной информации на нашем сайте:

Другие новости

Новости СМИ2

Главная страница сайта

Новости сайта

03.07.2017

Напоминаем, что на нашем специализированном сайте Метеоцентр.Азия вы можете получить высокодетализированные автоматические прогнозы погоды по пунктам России, СНГ и мира в авиационном формате (включающие направление и скорость ветра, видимость, явления погоды, количество и форму облачности, нижнюю и верхнюю границу облачности).


Погода Имени Попова - сегодня

Время (UTC), дата Ветер
(°,м/с) 
Видим.   Явления Облачность Т
(°С)
Тd
(°С)
f(%) Тe
(°С)
Pmin
(гПа)
dP
(гПа)
Po
(мм)
O2
(г/м3)
Тmin Tmax R s Состояние
почвы
21 19.02.18 040 (СВ) 20000 м    ясно 
-30.8 -33.8 75 -38  1026.2  0.8  769  351           
00 20.02.18 050 (СВ) 20000 м    ясно 
-30.2 -33.2 75 -36  1026.8  0.6  770  351           
03 20.02.18 050 (СВ) 20000 м    ясно 
-31.7 -34.9 73 -38  1027.4  0.6  770  353  -32.1      38  неравномерный
сухой снег
100% 
06 20.02.18 060 (СВ) 4000 м  дымка  ясно 
-29.3 -32.2 76 -33  1028.3  0.9  771  350           
09 20.02.18 060 (СВ) 4000 м  дымка  ясно 
-30.7 -33.7 75 -36  1029.8  1.4  772  352           
12 20.02.18 060 (СВ) 4000 м  дымка  ясно 
-29 -31.9 76 -33  1031.1  1.3  773  350           
18 20.02.18 090 (В) 20000 м  дымка  ясно 
-32.1 -35.4 73 -33  1033  1.1  774  356           
21 20.02.18 120 (ЮВ) 4000 м  дымка  ясно 
-32.8 -36.1 72 -34  1034.3  1.3  775  357           
00 21.02.18 тихо ()   4000 м  дымка  ясно 
-34.1 -37.5 71 -34  1035.2  0.8  776  359           
03 21.02.18 тихо ()   4000 м  дымка  ясно 
-27.6 -30.2 78 -28  1035.8  0.7  776  350  -34.9      38  неравномерный
сухой снег
100% 
06 21.02.18 050 (СВ) 2000 м  дымка  ясно 
-28.5 -31.4 76 -34  1036.6  0.8  777  351           
09 21.02.18 040 (СВ) 4000 м  дымка  1/0 верхняя 
[Ci fib]
-27.2 -29.9 78 -32  1037.7  778  350           
12 21.02.18 020 (С) 4000 м  дымка  1/0 верхняя 
[Ci fib]
-25.4 -27.9 80 -29  1037.8  0.1  778  347           
18 21.02.18 010 (С) 20000 м  ледяные иглы{снег}  ясно 
-25.7 -28.2 80 -32  1037.4  -0.2  777  348           
21 21.02.18 010 (С) 20000 м  {снег}  ясно 
-23.4 -25.7 81 -29  1037.2  -0.2  777  344           
00 22.02.18 020 (С) 20000 м  {снег}  ясно 
-23.3 -25.5 82 -30  1036.6  -0.6  777  344           
03 22.02.18 030 (СВ) 20000 м    4/0 верхняя 
[Ci fib]
-23.6 -25.8 82 -30  1036.3  -0.3  777  344  -27.1      38  неравномерный
сухой снег
100% 
06 22.02.18 040 (СВ) 20000 м    3/0 верхняя 
[Cs]
-21.9 -23.9 84 -29  1036.5  0.2  777  342           
09 22.02.18 040 (СВ) 20000 м    1/0 верхняя 
[Ci fib]
-22.3 -24.5 82 -29  1037.5  778  343           
12 22.02.18 020 (С) 20000 м    1/0 верхняя 
[Ci sp]
-24.4 -26.8 80 -32  1038.6  1.1  778  346           
15 22.02.18 030 (СВ) 20000 м    ясно 
-22.7 -24.9 82 -30  1038  -0.6  778  344    -21.9       
18 22.02.18 010 (С) 20000 м    ясно 
-23.6 -25.9 81 -31  1038.4  0.4  778  345           
21 22.02.18 360 (С) 20000 м    ясно 
-20.5 -22.3 85 -28  1037.5  -0.8  778  340           
00 23.02.18 010 (С) 20000 м    ясно 
-20.3 -22.2 85 -28  1036.6  -0.9  777  340           
03 23.02.18 010 (С) 8{10}  20000 м  позёмок  9/9 1020 м 
[Sc]
-18.4 -20.1 86 -27  1035.9  -0.7  776  337  -24.5      38  неравномерный
сухой снег
100% 
Время (UTC), дата Ветер
(°,м/с) 
Видим.   Явления Облачность Т
(°С)
Тd
(°С)
f(%) Тe
(°С)
Pmin
(гПа)
dP
(гПа)
Po
(мм)
O2
(г/м3)
Тmin Tmax R s Состояние
почвы

Для получения пояснительной информации подведите курсор к названию столбца.

ПОГОДА Имени Попова - архив

Всё, что Вы хотите узнать о погоде Имени Попова - удобно и подробно!

Выберите нужную дату (начиная с 1 января 2015* года) и нажмите кнопку "Найти".
Будут отображены архивные сводки погоды по пункту Имени Попова, начиная с указанной даты.


Отображать данные в формате CSV (для использования в таблицах Excel)


Внимание! Наш архив погоды предназначен исключительно для личного некоммерческого использования в познавательных целях. Если Вам необходимы официальные справки о состоянии погоды (для производственных, юридических, коммерческих и т.п. целей), обращайтесь в органы Росгидромета.

*Примечание: данная дата относится к архиву по метеостанциям СССР (Россия, СНГ, Балтия).
Архив по метеостанциям Зарубежной Европы и Азии (кроме Китая) хранится 10 дней, по другим регионам земного шара (Китай, Африка, Америка, Австралия, Океания) - 1 день.

Имени Попова - район местоположения метеостанции


Название, широта, долгота, высота метеостанции:
Имени Попова 73.3°ш. 70.1°д. 7 м над ур. моря [Российская Федерация]

Дополнительная информация

В oтличие oт бoльшинства пoгoдных сайтoв мы публикуем пoдрoбную метеoинфoрмацию в детальнoм прoфессиoнальнoм фoрмате.

Характеристики температуры и влажнoсти вoздуха измеряются на высoте 2 м в тени вдали oт зданий и деревьев.
Скoрoсть ветра измеряется на высoте 10 м (на урoвне рoста челoвека скoрoсть ветра ниже в 1.5-2 раза). Если метеoстанция нахoдится в гoрoде или в лесу, тo скoрoсть ветра занижена на 2-4 м/с пo сравнению с oткрытым местoм. Скoрoсть ветра над акватoриями крупных рек и oзёр, а также на вершинах хoлмoв на 2-5 м/с выше, чем в oбычных услoвиях.
Атмoсфернoе давление в разных тoчках местнoсти мoжет значительнo oтличаться oт давления на метеoстанции, в зависимoсти oт услoвий рельефа (при пoдъёме на 10 м давление пoнижается примернo на 1 мм рт.ст.).